PTP Borkum

Punkttermin-Prognose für Borkum
Modell: MOSMIX (Deutscher Wetterdienst)
Modelllaufzeit: 05 UTC
Aktualisierung: stündlich
Mittwoch - 17.07.2019
| Wetter - | Temperaturen | Wind | Niederschlag | Druck | Sonne
Zeit GZ | Bewölkung | TT MAX MIN TG TM | DD FF FX1 | RR1 RR24 | PPPP | SS1 SS24
02:00 Uhr | --- | --- --- --- --- --- | --- --- --- | --- | --- | ---
03:00 Uhr | --- | --- --- --- --- --- | --- --- --- | --- | --- | ---
04:00 Uhr | --- | --- --- --- --- --- | --- --- --- | --- | --- | ---
05:00 Uhr | --- | --- --- --- --- --- | --- --- --- | --- | --- | ---
06:00 Uhr | --- | --- --- --- --- --- | --- --- --- | --- | --- | ---
07:00 Uhr | --- | --- --- --- --- --- | --- --- --- | --- | --- | ---
08:00 Uhr | stark bewölkt | 15 --- 13 16 --- | W 6 --- | 0.0 | 1016 | 0.0
09:00 Uhr | bedeckt | 16 --- --- 17 --- | NW 6 --- | 0.0 | 1016 | 0.0
10:00 Uhr | stark bewölkt | 16 --- --- 18 --- | NW 6 --- | 0.0 | 1016 | 0.0
11:00 Uhr | stark bewölkt | 16 --- --- 20 --- | NW 6 --- | 0.0 | 1016 | 0.1
12:00 Uhr | stark bewölkt | 17 --- --- 21 --- | NW 6 --- | 0.0 | 1016 | 0.1
13:00 Uhr | wolkig | 18 --- --- 22 --- | NW 6 --- | 0.0 | 1016 | 0.2
14:00 Uhr | wolkig | 18 --- --- 23 --- | NW 6 --- | 0.0 | 1016 | 0.3
15:00 Uhr | wolkig | 19 --- --- 23 --- | N 7 --- | 0.0 | 1016 | 0.3
16:00 Uhr | wolkig | 19 --- --- 23 --- | N 7 --- | 0.0 | 1015 | 0.5
17:00 Uhr | wolkig | 20 --- --- 23 --- | NO 9 --- | 0.0 | 1015 | 0.6
18:00 Uhr | leicht bewölkt | 20 --- --- 22 --- | NO 9 --- | 0.0 | 1015 | 0.7
19:00 Uhr | leicht bewölkt | 20 --- --- 21 --- | NO 9 --- | 0.0 | 1014 | 0.8
20:00 Uhr | leicht bewölkt | 19 21 --- 20 --- | NO 9 --- | 0.0 | 1014 | 0.8
21:00 Uhr | leicht bewölkt | 18 --- --- 18 --- | NO 7 --- | 0.0 | 1014 | 0.7
22:00 Uhr | leicht bewölkt | 17 --- --- 16 --- | NO 7 --- | 0.0 | 1014 | 0.5
23:00 Uhr | leicht bewölkt | 16 --- --- 15 --- | O 7 --- | 0.0 | 1014 | 0.0
00:00 Uhr | leicht bewölkt | 15 --- --- 15 --- | O 6 --- | 0.0 | 1014 | 0.0
Donnerstag - 18.07.2019
| Wetter - | Temperaturen | Wind | Niederschlag | Druck | Sonne
Zeit GZ | Bewölkung | TT MAX MIN TG TM | DD FF FX1 | RR1 RR24 | PPPP | SS1 SS24
01:00 Uhr | leicht bewölkt | 15 --- --- 14 --- | O 7 --- | 0.0 | 1013 | 0.0
02:00 Uhr | leicht bewölkt | 14 --- --- 14 --- | O 7 --- | 0.0 | 1013 | 0.0
03:00 Uhr | leicht bewölkt | 14 --- --- 14 --- | SO 7 --- | 0.0 | 1013 | 0.0
04:00 Uhr | leicht bewölkt | 14 --- --- 14 --- | SO 7 --- | 0.0 | 1012 | 0.0
05:00 Uhr | wolkig | 14 --- --- 14 --- | SO 7 --- | 0.0 | 1012 | 0.0
06:00 Uhr | wolkig | 14 --- --- 14 --- | SO 7 --- | 0.0 | 1012 | 0.1
07:00 Uhr | wolkig | 15 --- --- 15 --- | SO 7 --- | 0.0 | 1011 | 0.2
08:00 Uhr | wolkig | 16 --- 13 16 --- | SO 9 --- | 0.0 | 1011 | 0.4
09:00 Uhr | wolkig | 18 --- --- 18 --- | SO 11 --- | 0.0 | 1011 | 0.5
10:00 Uhr | wolkig | 19 --- --- 20 --- | SO 13 --- | 0.0 | 1011 | 0.5
11:00 Uhr | wolkig | 20 --- --- 23 --- | SO 15 --- | 0.0 | 1010 | 0.5
12:00 Uhr | wolkig | 21 --- --- 24 --- | S 15 --- | 0.0 | 1010 | 0.5
13:00 Uhr | wolkig | 22 --- --- 25 --- | S 15 --- | 0.0 | 1010 | 0.5
14:00 Uhr | wolkig | 22 --- --- 26 --- | S 15 --- | 0.0 | 1010 | 0.5
15:00 Uhr | wolkig | 23 --- --- 25 --- | S 15 --- | 0.0 | 1010 | 0.5
16:00 Uhr | wolkig | 22 --- --- 24 --- | S 15 --- | 0.0 | 1010 | 0.5
17:00 Uhr | wolkig | 21 --- --- 23 --- | SW 13 --- | 0.0 | 1010 | 0.4
18:00 Uhr | wolkig | 20 --- --- 22 --- | SW 13 --- | 0.0 | 1010 | 0.4
19:00 Uhr | wolkig | 20 --- --- 20 --- | SW 11 --- | 0.0 | 1010 | 0.3
20:00 Uhr | wolkig | 19 24 --- 19 --- | SW 11 --- | 0.0 | 1010 | 0.3
21:00 Uhr | wolkig | 18 --- --- 18 --- | SW 9 --- | 0.0 | 1010 | 0.2
22:00 Uhr | wolkig | 17 --- --- 17 --- | SW 7 --- | 0.0 | 1010 | 0.1
23:00 Uhr | wolkig | 16 --- --- 16 | SW 7 --- | 0.0 | 1011 | 0.0
00:00 Uhr | wolkig | 16 --- --- 16 18 | S 7 --- | 0.0 0.0 | 1011 | 0.0 6.1
Freitag - 19.07.2019
| Wetter - | Temperaturen | Wind | Niederschlag | Druck | Sonne
Zeit GZ | Bewölkung | TT MAX MIN TG TM | DD FF FX1 | RR1 RR24 | PPPP | SS1 SS24
01:00 Uhr | wolkig | 16 --- --- 16 --- | S 7 --- | 0.0 | 1011 | 0.0
02:00 Uhr | wolkig | 15 --- --- 16 --- | S 7 --- | 0.0 | 1011 | 0.0
03:00 Uhr | wolkig | 15 --- --- 16 --- | S 7 --- | 0.0 | 1011 | 0.0
04:00 Uhr | wolkig | 15 --- --- 16 --- | SW 7 --- | 0.0 | 1011 | 0.0
05:00 Uhr | wolkig | 15 --- --- 16 --- | S 7 --- | 0.0 | 1012 | 0.0
06:00 Uhr | wolkig | 15 --- --- 16 --- | SW 7 --- | 0.0 | 1012 | 0.1
07:00 Uhr | wolkig | 16 --- --- 16 --- | SW 7 --- | 0.0 | 1012 | 0.2
08:00 Uhr | wolkig | 16 --- 14 17 --- | SW 9 --- | 0.0 | 1012 | 0.4
09:00 Uhr | wolkig | 18 --- --- 19 --- | SW 11 --- | 0.0 | 1012 | 0.5
10:00 Uhr | wolkig | 19 --- --- 21 --- | SW 11 --- | 0.0 | 1013 | 0.5
11:00 Uhr | wolkig | 19 --- --- 23 --- | SW 13 --- | 0.0 | 1013 | 0.6
12:00 Uhr | wolkig | 20 --- --- 24 --- | SW 13 --- | 0.0 | 1013 | 0.6
13:00 Uhr | wolkig | 21 --- --- 25 --- | SW 13 --- | 0.0 | 1013 | 0.7
14:00 Uhr | wolkig | 21 --- --- 26 --- | SW 13 --- | 0.0 | 1013 | 0.7
15:00 Uhr | wolkig | 22 --- --- 26 --- | SW 13 --- | 0.0 | 1014 | 0.7
16:00 Uhr | wolkig | 22 --- --- 26 --- | SW 13 --- | 0.0 | 1014 | 0.7
17:00 Uhr | wolkig | 22 --- --- 25 --- | SW 11 --- | 0.0 | 1014 | 0.6
18:00 Uhr | wolkig | 22 --- --- 24 --- | SW 11 --- | 0.0 | 1013 | 0.6
19:00 Uhr | wolkig | 21 --- --- 22 --- | SW 11 --- | 0.0 | 1013 | 0.5
20:00 Uhr | wolkig | 20 24 --- 21 --- | S 9 --- | 0.0 | 1013 | 0.4
21:00 Uhr | wolkig | 19 --- --- 19 --- | SO 7 --- | 0.0 | 1013 | 0.3
22:00 Uhr | wolkig | 18 --- --- 18 --- | SO 7 --- | 0.0 | 1013 | 0.2
23:00 Uhr | wolkig | 18 --- --- 17 | SO 9 --- | 0.0 | 1013 | 0.0
00:00 Uhr | wolkig | 17 --- --- 17 18 | SO 9 --- | 0.0 0.0 | 1013 | 0.0 8.4
Samstag - 20.07.2019
| Wetter - | Temperaturen | Wind | Niederschlag | Druck | Sonne
Zeit GZ | Bewölkung | TT MAX MIN TG TM | DD FF FX3 | RR3 RR24 | PPPP | SS3 SS24
02:00 Uhr | wolkig | 17 --- --- 16 --- | SO 11 --- | 0.0 | 1012 | 0.0
05:00 Uhr | leichter Regen | 17 --- --- 16 --- | SO 11 --- | 2.7 | 1011 | 0.0
08:00 Uhr | wolkig | 18 --- 16 18 --- | S 13 --- | 1.1 | 1010 | 0.3
11:00 Uhr | wolkig | 21 --- --- 22 --- | S 18 --- | 0.0 | 1010 | 0.9
14:00 Uhr | wolkig | 22 --- --- 24 --- | S 20 --- | 0.0 | 1010 | 1.3
17:00 Uhr | wolkig | 22 --- --- 22 --- | SW 20 --- | 0.0 | 1011 | 1.0
20:00 Uhr | wolkig | 20 24 --- 20 --- | SW 15 --- | 0.0 | 1011 | 0.7
23:00 Uhr | wolkig | 18 --- --- 18 19 | S 11 --- | 0.0 3.8 | 1012 | 0.3 4.4
Sonntag - 21.07.2019
| Wetter - | Temperaturen | Wind | Niederschlag | Druck | Sonne
Zeit GZ | Bewölkung | TT MAX MIN TG TM | DD FF FX3 | RR3 RR24 | PPPP | SS3 SS24
02:00 Uhr | wolkig | 17 --- --- 17 --- | S 11 --- | 0.0 | 1012 | 0.0
05:00 Uhr | wolkig | 16 --- --- 17 --- | SW 13 --- | 0.0 | 1013 | 0.0
08:00 Uhr | wolkig | 18 --- 16 18 --- | SW 13 --- | 0.0 | 1014 | 0.5
11:00 Uhr | wolkig | 20 --- --- 22 --- | SW 18 --- | 0.0 | 1015 | 1.3
14:00 Uhr | wolkig | 21 --- --- 24 --- | SW 18 --- | 0.0 | 1016 | 1.4
17:00 Uhr | wolkig | 21 --- --- 23 --- | SW 18 --- | 0.0 | 1016 | 1.4
20:00 Uhr | wolkig | 19 23 --- 20 --- | W 15 --- | 0.0 | 1018 | 1.4
23:00 Uhr | wolkig | 17 --- --- 18 18 | SW 9 --- | 0.0 0.0 | 1018 | 0.6 6.6
Montag - 22.07.2019
| Wetter - | Temperaturen | Wind | Niederschlag | Druck | Sonne
Zeit GZ | Bewölkung | TT MAX MIN TG TM | DD FF FX3 | RR3 RR24 | PPPP | SS3 SS24
02:00 Uhr | wolkig | 16 --- --- 17 --- | SW 9 --- | 0.0 | 1018 | 0.0
05:00 Uhr | wolkig | 15 --- --- 16 --- | SW 9 --- | 0.0 | 1018 | 0.0
08:00 Uhr | wolkig | 18 --- 14 19 --- | SW 11 --- | 0.0 | 1019 | 0.7
11:00 Uhr | wolkig | 22 --- --- 22 --- | SW 17 --- | 0.0 | 1019 | 1.3
14:00 Uhr | wolkig | 23 --- --- 26 --- | SW 18 --- | 0.0 | 1019 | 1.5
17:00 Uhr | wolkig | 24 --- --- 24 --- | SW 18 --- | 0.0 | 1019 | 1.5
20:00 Uhr | wolkig | 22 26 --- 22 --- | SW 13 --- | 0.0 | 1019 | 1.4
23:00 Uhr | leicht bewölkt | 18 --- --- 18 20 | S 7 --- | 0.0 0.0 | 1019 | 0.7 7.1
Dienstag - 23.07.2019
| Wetter - | Temperaturen | Wind | Niederschlag | Druck | Sonne
Zeit GZ | Bewölkung | TT MAX MIN TG TM | DD FF FX3 | RR3 RR24 | PPPP | SS3 SS24
02:00 Uhr | leicht bewölkt | 17 --- --- 18 --- | S 9 --- | 0.0 | 1019 | 0.0
05:00 Uhr | wolkig | 16 --- --- 17 --- | S 9 --- | 0.0 | 1018 | 0.0
08:00 Uhr | wolkig | 19 --- 15 20 --- | S 11 --- | 0.0 | 1018 | 1.0
11:00 Uhr | wolkig | 24 --- --- 25 --- | S 17 --- | 0.0 | 1018 | 2.1
14:00 Uhr | wolkig | 26 --- --- 29 --- | S 17 --- | 0.0 | 1017 | 2.4
17:00 Uhr | leicht bewölkt | 26 --- --- 28 --- | SW 17 --- | 0.0 | 1016 | 2.3
20:00 Uhr | leicht bewölkt | 23 28 --- 24 --- | SW 13 --- | 0.0 | 1016 | 2.1
23:00 Uhr | leicht bewölkt | 19 --- --- 20 21 | S 9 --- | 0.0 0.0 | 1016 | 0.9 10.8
Mittwoch - 24.07.2019
| Wetter - | Temperaturen | Wind | Niederschlag | Druck | Sonne
Zeit GZ | Bewölkung | TT MAX MIN TG TM | DD FF FX3 | RR3 RR24 | PPPP | SS3 SS24
02:00 Uhr | leicht bewölkt | 18 --- --- 19 --- | S 9 --- | 0.0 | 1016 | 0.0
05:00 Uhr | wolkig | 17 --- --- 19 --- | S 9 --- | 0.0 | 1016 | 0.0
08:00 Uhr | wolkig | 19 --- 16 21 --- | S 11 --- | 0.0 | 1016 | 0.9
11:00 Uhr | leicht bewölkt | 24 --- --- 26 --- | S 15 --- | 0.0 | 1016 | 2.4
14:00 Uhr | wolkig | 26 --- --- 29 --- | S 17 --- | 0.0 | 1016 | 2.5
17:00 Uhr | leicht bewölkt | 26 --- --- 27 --- | SW 15 --- | 0.0 | 1016 | 2.2
20:00 Uhr | leicht bewölkt | 22 28 --- 23 --- | SW 13 --- | 0.0 | 1016 | 2.1
23:00 Uhr | leicht bewölkt | 20 --- --- 20 22 | SO 9 --- | 0.0 0.0 | 1016 | 0.8 10.9
Donnerstag - 25.07.2019
| Wetter - | Temperaturen | Wind | Niederschlag | Druck | Sonne
Zeit GZ | Bewölkung | TT MAX MIN TG TM | DD FF FX3 | RR3 RR24 | PPPP | SS3 SS24
02:00 Uhr | leicht bewölkt | 18 --- --- 19 --- | SO 9 --- | 0.0 | 1016 | 0.0
05:00 Uhr | wolkig | 17 --- --- 18 --- | S 9 --- | 0.0 | 1016 | 0.0
08:00 Uhr | wolkig | 19 --- 16 20 --- | S 11 --- | 0.0 | 1016 | 1.2
11:00 Uhr | wolkig | 24 --- --- 26 --- | S 13 --- | 0.0 | 1016 | 2.5
14:00 Uhr | wolkig | 26 --- --- 28 --- | SW 15 --- | 0.0 | 1016 | 2.9
17:00 Uhr | wolkig | 26 --- --- 27 --- | SW 15 --- | 0.0 | 1015 | 2.8
20:00 Uhr | leicht bewölkt | 22 28 --- 23 --- | N 13 --- | 0.0 | 1015 | 2.2
23:00 Uhr | wolkig | 19 --- --- 20 21 | SO 9 --- | 0.0 0.0 | 1015 | 0.7 12.2
Freitag - 26.07.2019
| Wetter - | Temperaturen | Wind | Niederschlag | Druck | Sonne
Zeit GZ | Bewölkung | TT MAX MIN TG TM | DD FF FX3 | RR3 RR24 | PPPP | SS3 SS24
02:00 Uhr | wolkig | 17 --- --- 19 --- | S 9 --- | 0.0 | 1015 | 0.0
05:00 Uhr | wolkig | 16 --- --- 18 --- | S 9 --- | 0.0 | 1015 | 0.0
08:00 Uhr | wolkig | 19 --- 16 20 --- | S 11 --- | 0.0 | 1015 | 0.9
11:00 Uhr | wolkig | 23 --- --- 25 --- | SW 15 --- | 0.0 | 1015 | 2.4
14:00 Uhr | wolkig | 25 --- --- 29 --- | SW 17 --- | 0.0 | 1015 | 2.7
17:00 Uhr | wolkig | 25 --- --- 27 --- | W 17 --- | 0.0 | 1015 | 2.7
20:00 Uhr | wolkig | 23 27 --- 23 --- | NW 13 --- | 0.0 | 1015 | 2.2
23:00 Uhr | wolkig | 18 --- --- 19 21 | SW 9 --- | 0.0 0.0 | 1015 | 0.7 11.5
Samstag - 27.07.2019
| Wetter - | Temperaturen | Wind | Niederschlag | Druck | Sonne
Zeit GZ | Bewölkung | TT MAX MIN TG TM | DD FF FX3 | RR3 RR24 | PPPP | SS3 SS24
02:00 Uhr | wolkig | 16 --- --- 18 --- | SW 9 --- | 0.0 | 1015 | 0.0
05:00 Uhr | wolkig | 16 --- --- 18 --- | SW 9 --- | 0.0 | 1015 | 0.0
---:00 Uhr | --- | --- --- --- --- --- | --- --- --- | --- | --- | ---
---:00 Uhr | --- | --- --- --- --- --- | --- --- --- | --- | --- | ---
---:00 Uhr | --- | --- --- --- --- --- | --- --- --- | --- | --- | ---
---:00 Uhr | --- | --- --- --- --- --- | --- --- --- | --- | --- | ---
---:00 Uhr | --- | --- --- --- --- --- | --- --- --- | --- | --- | ---
---:00 Uhr | --- | --- --- --- --- --- | --- --- --- | --- --- | --- | ---


Wetter : Wetter/Bewölkung zum Termin (aktuelle Stunde) TT : Lufttemperatur in Grad Celsius zum Termin MAX : Maximum Lufttemperatur in Grad Celsius letzte 12 Stunden MIN : Minimum Lufttemperatur der vergangenen Nacht in Grad Celsius letzte 12 Stunden TG : Temperatur in 5cm überm Erdboden TM : Tagesmittel Lufttemperatur in Grad Celsius letzte 24 Stunden DD : Windrichtung zum Termin FF : Windgeschwindigkeit zum Termin FX1 : höchste Windspitze im Bezugszeitraum letzte 1 Stunde in km/h FX3 : höchste Windspitze im Bezugszeitraum letzte 3 Stunden in km/h PPPP : reduzierter Luftdruck auf Meereshöhe in hPa zum Termin RR1 : Niederschlagsmenge im Bezugszeitraum letzte 1 Stunde in mm = l/qm RR3 : Niederschlagsmenge im Bezugszeitraum letzte 3 Stunden in mm = l/qm RR24 : Niederschlagsmenge im Bezugszeitraum letzte 24 Stunden in mm = l/qm SS1 : Sonnenscheindauer letzte 1 Stunde SS3 : Sonnenscheindauer letzte 3 Stunden SS24 : Sonnenscheindauer letzte 24 Stunden --- : Wert nicht vorhanden